SCP
0 0 0 0 0 0 0 0 0 0 0 0 0 0 0 0 0 0 0 0 0 0 0 0 0 0 0 0 0 0 0 0 0 0 0 0 0 0 0 0 0 0 0 0 0
0 0 0 0 0 0 0 0 0 0 0 0 0 0 0 0 0 0 0 0 0 0 0 0 0 0 0 0 0 0 0 0 0 0 0 0 0 0 0 0 0 0 0 0 0
0 0 0 0 0 0 0 0 0 0 0 0 0 0 0 0 0 0 0 0 0 0 0 0 0 0 0 0 0 0 0 0 0 0 0 0 0 0 0 0 0 0 0 0 0
0 0 0 0 0 0 0 0 0 0 0 0 0 0 0 0 0 0 0 0 0 0 0 0 0 0 0 0 0 0 0 0 0 0 0 0 0 0 0 0 0 0 0 0 0
0 0 0 0 0 0 0 0 0 0 0 0 0 0 0 0 0 0 0 0 0 0 0 0 0 0 0 0 0 0 0 0 0 0 0 0 0 0 0 0 0 0 0 0 0
0 0 0 0 0 0 0 0 0 0 0 0 0 0 0 0 0 0 0 0 0 0 0 0 0 0 0 0 0 0 0 0 0 0 0 0 0 0 0 0 0 0 0 0 0
0 0 0 0 0 0 0 0 0 0 0 0 0 0 0 0 0 0 0 0 0 0 0 0 0 0 0 0 0 0 0 0 0 0 0 0 0 0 0 0 0 0 0 0 0
0 0 0 0 0 0 0 0 0 0 0 0 0 0 0 0 0 0 0 0 0 0 0 0 0 0 0 0 0 0 0 0 0 0 0 0 0 0 0 0 0 0 0 0 0
0 0 0 0 0 0 0 0 0 0 0 0 0 0 0 0 0 0 0 0 0 0 0 0 0 0 0 0 0 0 0 0 0 0 0 0 0 0 0 0 0 0 0 0 0
0 0 0 0 0 0 0 0 0 0 0 0 0 0 0 0 0 0 0 0 0 0 0 0 0 0 0 0 0 0 0 0 0 0 0 0 0 0 0 0 0 0 0 0 0
0 0 0 0 0 0 0 0 0 0 0 0 0 0 0 0 0 0 0 0 0 0 0 0 0 0 0 0 0 0 0 0 0 0 0 0 0 0 0 0 0 0 0 0 0
0 0 0 0 0 0 0 0 0 0 0 0 0 -0 0 0 0 0 0 0 0 0 0 0 0 0 0 0 0 0 0 0 0 0 0 0 0 0 0 0 0 0 0 0 0
0 0 0 0 0 0 0 0 0 0 0 0 0 0 0 0 0 0 0 0 0 0 0 0 0 0 0 0 0 0 0 0 0 0 0 0 0 0 0 0 0 0 0 0 0
0 0 0 0 0 0 0 0 0 0 0 0 0 0 0 0 0 0 0 0 0 0 0 0 0 0 0 0 0 0 0 0 0 0 0 0 0 0 0 0 0 0 0 0 0
0 0 0 0 0 0 0 0 0 0 0 0 0 0 0 0 0 0 0 0 0 0 0 0 0 0 0 0 0 0 0 0 0 0 0 0 0 0 0 0 0 0 0 0 0
0 0 0 0 0 0 0 0 0 0 0 0 0 1 0 0 0 0 0 0 0 0 0 0 0 0 0 0 0 0 0 0 0 0 0 0 0 0 0 0 0 0 0 0 0
0 0 0 0 0 0 0 0 0 0 0 0 0 0 0 0 0 0 0 0 0 0 0 0 0 0 0 0 0 0 0 0 0 0 0 0 0 0 0 0 0 0 0 0 0
0 0 0 0 0 0 0 0 0 0 0 0 0 0 0 0 0 0 0 0 0 0 0 0 0 0 0 0 0 0 0 0 0 0 0 0 0 0 0 0 0 0 0 0 0
0 0 0 0 0 0 0 0 0 0 0 0 0 0 0 0 0 0 0 0 0 0 0 0 0 0 0 0 0 0 0 0 0 0 0 0 0 0 0 0 0 0 0 0 0
0 0 0 0 0 0 0 0 -0 0 0 0 0 0 0 0 0 0 0 0 0 0 0 0 0 0 0 0 0 0 0 0 0 0 0 0 0 0 0 0 0 0 0 0 0
0 0 0 0 0 0 0 0 -0 0 0 0 0 0 0 0 0 0 0 0 0 0 0 0 0 0 0 0 0 0 0 0 0 0 0 0 0 0 0 0 0 0 0 0 0
0 0 0 0 0 0 0 0 0 0 0 0 0 0 0 0 0 0 0 0 0 0 0 0 0 0 0 0 0 0 0 0 0 0 0 0 0 0 0 0 0 0 0 0 0
0 0 0 0 0 -0 0 0 0 0 0 0 0 0 0 0 0 0 0 0 0 0 0 0 0 0 0 0 0 0 0 0 0 0 0 0 0 0 -0 0 0 0 0 0 0
0 0 0 0 0 0 0 0 0 0 0 0 -0 0 0 0 0 0 0 0 0 0 0 0 0 0 0 0 0 0 0 0 0 0 0 0 0 0 0 0 0 0 0 0 0
0 0 0 0 0 0 0 0 0 0 0 0 0 -0 0 0 0 0 0 0 0 0 0 0 0 0 0 0 0 0 0 0 0 0 0 0 0 0 0 0 -0 -0 -0 -0 -0
0 0 0 0 0 0 0 0 0 0 0 0 -0 -0 -0 0 0 0 0 0 0 0 0 0 0 0 0 0 0 0 0 0 0 0 0 0 0 0 0 0 0 0 -0 -0 -0
0 0 0 0 0 0 0 0 0 0 0 0 -0 -0 0 -0 0 0 0 0 0 0 0 0 0 0 0 0 0 0 0 0 0 0 0 0 0 0 0 0 0 0 0 -0 -0
Wind_Speed_500mb
63 56 51 56 52 47 43 39 37 38 42 40 42 39 43 45 48 49 50 47 34 38 29 10 12 7 8 6 8 2 6 4 8 10 6 2 2 7 9 10 4 6 11 13 25
78 72 61 53 57 55 50 44 40 37 36 37 35 37 35 39 47 57 58 48 44 36 29 22 11 11 12 9 7 6 6 11 11 11 4 12 6 10 5 5 4 8 9 14 25
60 84 78 65 58 56 57 52 46 39 34 36 32 31 32 30 38 58 56 53 49 44 33 23 18 6 6 17 13 10 9 13 35 15 16 7 15 7 7 3 9 25 30 29 31
61 62 67 76 69 61 57 59 52 47 39 35 32 27 27 24 16 2 16 23 44 45 42 32 25 7 4 9 19 8 29 25 27 29 16 7 15 24 8 11 18 15 31 34 33
65 61 68 64 73 70 62 58 59 54 47 37 37 32 31 37 45 11 10 20 34 41 50 47 30 21 11 11 31 8 20 34 33 43 25 15 10 11 35 31 22 18 12 26 33
66 71 62 66 61 65 68 56 61 60 54 45 40 38 41 43 60 35 11 7 35 47 52 48 30 39 15 30 18 17 24 33 39 43 29 17 23 21 18 20 29 14 22 30 32
78 78 72 64 63 58 62 67 50 61 58 52 44 47 55 63 14 50 33 29 18 42 53 54 31 31 11 21 32 31 10 17 17 19 10 25 13 14 36 37 45 46 32 33 36
72 70 77 72 65 63 57 57 63 47 60 55 50 51 45 29 53 31 37 45 26 28 40 43 45 30 22 17 19 6 5 11 4 9 22 17 30 14 24 29 39 52 53 45 47
70 70 69 74 69 64 60 53 56 62 48 56 55 52 35 38 55 66 29 47 29 31 23 38 38 31 16 8 5 3 5 12 15 30 11 18 6 28 46 59 41 35 48 50 55
68 68 65 68 66 67 61 54 46 48 62 45 62 42 44 49 46 57 44 36 41 40 36 38 20 8 9 12 21 16 14 14 13 9 20 33 40 18 35 40 55 46 45 46 40
68 68 67 65 63 64 57 49 34 27 59 39 11 30 4 55 39 40 60 50 47 49 24 38 16 42 52 28 27 17 17 17 11 25 21 17 31 29 46 47 51 59 62 64 61
70 67 66 67 62 61 63 69 56 14 16 75 73 69 49 33 30 52 68 50 44 32 22 15 48 35 19 22 23 24 25 30 9 16 13 17 25 19 28 33 56 56 54 60 62
71 67 63 64 62 59 72 79 67 48 12 33 94 64 71 41 35 70 91 67 41 34 40 29 29 28 30 31 34 35 38 28 12 11 8 4 20 13 11 31 45 51 50 59 70
70 67 67 61 56 68 71 76 71 57 17 20 29 53 63 59 23 63 101 66 16 52 36 25 44 36 26 35 33 38 23 15 11 7 11 4 18 17 7 20 32 48 58 72 79
66 74 70 68 65 57 73 70 61 49 25 27 39 28 68 43 19 52 88 69 32 22 23 33 25 31 36 49 30 23 15 13 12 10 2 24 10 12 13 21 33 35 54 60 65
72 73 72 64 66 64 63 46 65 24 19 23 38 33 40 66 30 45 75 74 49 21 35 42 26 31 31 25 29 8 7 10 8 7 21 36 17 26 23 36 33 39 56 59 55
72 75 74 70 82 75 66 68 20 33 21 16 37 42 51 34 42 20 52 56 30 23 32 36 30 11 31 15 24 15 15 9 10 15 24 17 12 38 25 37 23 30 52 50 55
59 68 71 78 71 59 68 30 34 42 28 11 20 45 57 47 43 38 47 42 51 40 14 29 29 47 28 34 17 29 31 13 15 10 11 8 19 27 34 66 61 71 82 76 66
56 64 67 79 77 72 51 34 19 23 20 31 38 33 37 36 27 44 40 52 60 46 22 26 24 17 20 12 37 17 23 27 10 5 6 7 11 17 17 32 35 33 19 8 15
65 66 80 76 70 76 28 52 16 13 32 18 42 38 51 47 33 45 41 46 44 55 37 13 11 12 43 16 22 18 17 12 10 12 17 8 7 15 9 14 12 12 27 22 28
60 31 53 68 67 52 31 27 11 11 24 27 26 23 43 41 47 40 35 33 54 60 44 13 9 11 24 28 46 11 17 7 8 10 9 2 10 18 30 5 16 17 13 18 25
46 12 27 67 23 8 27 17 19 11 12 11 5 11 17 39 41 42 55 45 86 59 52 32 5 8 46 29 29 39 32 27 12 11 8 2 10 5 16 15 23 10 23 28 34
47 23 27 79 20 18 10 8 3 6 10 13 4 10 25 24 22 16 40 47 81 44 49 38 8 8 8 7 4 29 20 30 13 7 17 16 21 10 7 2 10 22 19 27 29
22 11 12 50 35 10 7 8 8 4 6 11 13 3 6 34 21 38 33 30 62 51 69 48 11 16 22 26 17 21 32 27 30 18 23 20 30 8 18 17 23 22 25 29 35
21 8 16 13 19 12 18 10 14 8 4 24 6 24 17 24 44 16 27 23 33 63 41 30 24 24 9 12 14 19 36 41 40 51 27 43 37 43 29 29 10 10 26 37 42
22 11 9 4 32 34 21 30 22 11 18 14 13 28 35 23 27 21 19 24 24 37 43 18 17 10 4 8 10 7 18 22 39 36 34 33 28 33 12 10 18 18 22 28 30
30 27 31 11 18 21 16 11 37 18 12 12 21 10 18 17 50 32 48 42 32 40 36 22 11 17 21 18 12 10 22 16 10 11 26 24 39 7 4 7 8 14 21 26 31
Wind_Direction_500mb
252 247 248 247 248 247 249 253 254 256 255 258 254 251 248 252 257 258 254 255 250 252 247 264 277 313 315 278 278 281 51 247 260 20 339 118 43 113 107 114 91 131 168 181 170
246 249 248 248 246 246 245 247 247 250 255 249 254 253 253 251 257 255 254 247 241 239 244 236 224 318 223 248 223 180 149 228 235 353 94 20 303 156 113 153 173 139 203 177 182
252 249 249 248 247 246 244 243 246 245 246 240 243 250 249 250 269 266 260 251 244 231 223 215 206 284 268 259 223 196 215 265 287 357 10 48 3 337 134 135 229 215 217 201 196
253 251 251 247 247 245 244 241 239 239 239 236 231 239 238 223 234 308 252 236 231 228 216 213 206 217 233 251 256 247 270 265 286 312 321 341 329 332 272 260 308 286 237 212 211
253 254 250 249 245 244 244 241 236 235 234 231 224 229 220 215 224 150 197 212 206 212 208 203 198 207 205 232 261 228 243 254 275 291 299 303 285 279 297 287 307 280 232 221 233
253 249 251 247 244 243 240 243 235 232 231 226 221 217 220 236 234 212 211 215 211 207 208 195 202 202 265 241 239 267 274 255 244 267 292 277 266 268 255 279 279 255 255 247 248
250 251 251 248 243 243 238 236 238 232 229 225 219 217 226 231 176 212 215 249 235 217 208 197 177 190 207 280 278 273 291 303 251 280 284 300 275 229 262 263 267 270 275 248 250
251 251 248 248 245 241 238 235 232 234 230 225 219 218 238 258 215 204 208 228 243 214 214 195 197 238 250 248 321 6 293 248 266 258 267 263 257 236 240 265 270 266 265 260 246
248 248 248 247 245 241 237 235 231 232 229 226 216 211 242 241 225 211 185 210 218 188 198 186 205 225 230 147 341 265 226 230 267 235 256 198 282 247 247 253 266 275 267 270 258
247 247 246 244 244 240 238 233 233 235 231 233 226 188 232 219 220 215 198 180 195 173 182 204 200 175 190 172 212 204 216 234 214 228 225 240 256 251 234 238 267 276 279 279 274
247 246 246 243 242 236 233 224 217 228 218 201 215 195 76 214 200 210 192 184 190 186 183 186 178 206 206 198 203 186 228 227 220 231 247 237 254 249 249 238 239 259 269 276 279
242 242 240 243 242 238 226 214 209 202 215 227 231 212 213 201 180 198 184 194 189 196 160 173 216 212 146 187 197 215 236 251 270 269 212 253 266 245 244 240 242 243 253 267 275
240 237 237 236 237 234 225 224 216 212 255 220 227 223 219 198 200 190 185 192 189 187 199 194 226 184 184 193 200 219 218 231 224 323 275 266 274 261 262 260 263 267 273 268 270
238 231 232 231 229 227 226 226 221 214 240 214 191 219 218 224 228 197 192 184 184 206 193 219 229 184 196 206 197 213 210 215 193 126 242 71 275 247 252 272 270 270 263 263 265
239 228 227 223 221 216 216 217 205 206 233 177 186 205 205 194 141 200 193 196 206 175 179 210 169 193 198 210 191 229 193 200 188 202 84 251 260 279 198 253 257 263 265 261 266
229 223 225 221 220 222 218 213 209 218 216 174 150 179 176 188 193 187 184 192 213 192 210 216 196 184 208 213 195 143 106 194 226 173 237 238 215 264 248 256 261 264 262 262 265
226 222 219 218 216 217 212 208 216 221 140 179 168 175 185 188 182 193 184 188 189 200 198 216 229 210 192 175 191 168 139 217 226 218 242 207 181 242 260 253 247 256 259 265 268
214 218 220 220 222 207 204 221 219 206 175 168 166 181 193 181 196 181 190 190 207 194 167 190 207 223 199 202 174 192 190 195 204 185 230 174 207 244 232 257 252 255 265 270 274
216 217 215 217 218 213 210 226 233 184 176 155 167 184 189 185 175 186 192 192 193 195 194 192 225 199 197 161 179 194 202 201 89 29 63 220 287 305 252 261 250 241 275 97 58
205 208 217 216 212 205 210 224 220 204 162 173 181 187 195 190 174 186 187 194 194 195 196 193 219 213 197 169 222 197 150 186 199 208 235 232 234 242 329 306 319 126 115 73 47
207 201 217 219 205 216 215 209 233 247 158 165 178 194 197 189 200 188 177 178 193 194 198 187 139 203 153 200 197 152 198 170 159 162 194 267 250 220 226 217 120 125 99 50 27
196 186 206 195 190 224 221 154 168 170 111 80 246 184 190 183 193 193 207 202 196 188 194 204 159 168 197 189 194 208 204 189 186 185 199 131 268 275 147 144 102 70 27 37 16
166 174 202 186 208 215 152 122 130 153 132 140 164 215 217 189 189 162 183 204 189 184 184 184 190 142 57 21 328 200 200 199 194 111 197 192 237 277 213 174 42 12 24 16 16
147 160 188 190 199 149 106 146 98 76 144 133 151 166 267 208 208 193 196 167 182 185 194 176 158 195 191 209 147 195 206 199 200 220 212 215 245 266 294 290 328 348 17 29 15
152 174 175 189 174 174 175 166 154 137 194 141 143 202 243 206 190 190 192 175 171 192 183 189 192 193 164 102 144 197 203 210 210 222 212 238 242 261 253 277 301 38 35 24 22
143 148 127 200 184 173 180 199 172 144 170 171 165 193 215 236 215 173 142 158 173 181 190 176 195 131 215 145 136 184 215 214 224 226 224 235 247 243 61 334 13 48 41 39 28
170 181 164 157 168 173 201 179 202 143 237 162 179 188 235 223 242 207 164 173 165 169 188 171 130 174 207 131 93 308 208 184 191 202 211 223 237 285 123 192 92 89 50 26 6
Wind_Speed_850mb
63 56 51 56 52 47 43 39 37 38 42 40 42 39 43 45 48 49 50 47 34 38 29 10 12 7 8 6 8 2 6 4 8 10 6 2 2 7 9 10 4 6 11 13 25
78 72 61 53 57 55 50 44 40 37 36 37 35 37 35 39 47 57 58 48 44 36 29 22 11 11 12 9 7 6 6 11 11 11 4 12 6 10 5 5 4 8 9 14 25
60 84 78 65 58 56 57 52 46 39 34 36 32 31 32 30 38 58 56 53 49 44 33 23 18 6 6 17 13 10 9 13 35 15 16 7 15 7 7 3 9 25 30 29 31
61 62 67 76 69 61 57 59 52 47 39 35 32 27 27 24 16 2 16 23 44 45 42 32 25 7 4 9 19 8 29 25 27 29 16 7 15 24 8 11 18 15 31 34 33
65 61 68 64 73 70 62 58 59 54 47 37 37 32 31 37 45 11 10 20 34 41 50 47 30 21 11 11 31 8 20 34 33 43 25 15 10 11 35 31 22 18 12 26 33
66 71 62 66 61 65 68 56 61 60 54 45 40 38 41 43 60 35 11 7 35 47 52 48 30 39 15 30 18 17 24 33 39 43 29 17 23 21 18 20 29 14 22 30 32
78 78 72 64 63 58 62 67 50 61 58 52 44 47 55 63 14 50 33 29 18 42 53 54 31 31 11 21 32 31 10 17 17 19 10 25 13 14 36 37 45 46 32 33 36
72 70 77 72 65 63 57 57 63 47 60 55 50 51 45 29 53 31 37 45 26 28 40 43 45 30 22 17 19 6 5 11 4 9 22 17 30 14 24 29 39 52 53 45 47
70 70 69 74 69 64 60 53 56 62 48 56 55 52 35 38 55 66 29 47 29 31 23 38 38 31 16 8 5 3 5 12 15 30 11 18 6 28 46 59 41 35 48 50 55
68 68 65 68 66 67 61 54 46 48 62 45 62 42 44 49 46 57 44 36 41 40 36 38 20 8 9 12 21 16 14 14 13 9 20 33 40 18 35 40 55 46 45 46 40
68 68 67 65 63 64 57 49 34 27 59 39 11 30 4 55 39 40 60 50 47 49 24 38 16 42 52 28 27 17 17 17 11 25 21 17 31 29 46 47 51 59 62 64 61
70 67 66 67 62 61 63 69 56 14 16 75 73 69 49 33 30 52 68 50 44 32 22 15 48 35 19 22 23 24 25 30 9 16 13 17 25 19 28 33 56 56 54 60 62
71 67 63 64 62 59 72 79 67 48 12 33 94 64 71 41 35 70 91 67 41 34 40 29 29 28 30 31 34 35 38 28 12 11 8 4 20 13 11 31 45 51 50 59 70
70 67 67 61 56 68 71 76 71 57 17 20 29 53 63 59 23 63 101 66 16 52 36 25 44 36 26 35 33 38 23 15 11 7 11 4 18 17 7 20 32 48 58 72 79
66 74 70 68 65 57 73 70 61 49 25 27 39 28 68 43 19 52 88 69 32 22 23 33 25 31 36 49 30 23 15 13 12 10 2 24 10 12 13 21 33 35 54 60 65
72 73 72 64 66 64 63 46 65 24 19 23 38 33 40 66 30 45 75 74 49 21 35 42 26 31 31 25 29 8 7 10 8 7 21 36 17 26 23 36 33 39 56 59 55
72 75 74 70 82 75 66 68 20 33 21 16 37 42 51 34 42 20 52 56 30 23 32 36 30 11 31 15 24 15 15 9 10 15 24 17 12 38 25 37 23 30 52 50 55
59 68 71 78 71 59 68 30 34 42 28 11 20 45 57 47 43 38 47 42 51 40 14 29 29 47 28 34 17 29 31 13 15 10 11 8 19 27 34 66 61 71 82 76 66
56 64 67 79 77 72 51 34 19 23 20 31 38 33 37 36 27 44 40 52 60 46 22 26 24 17 20 12 37 17 23 27 10 5 6 7 11 17 17 32 35 33 19 8 15
65 66 80 76 70 76 28 52 16 13 32 18 42 38 51 47 33 45 41 46 44 55 37 13 11 12 43 16 22 18 17 12 10 12 17 8 7 15 9 14 12 12 27 22 28
60 31 53 68 67 52 31 27 11 11 24 27 26 23 43 41 47 40 35 33 54 60 44 13 9 11 24 28 46 11 17 7 8 10 9 2 10 18 30 5 16 17 13 18 25
46 12 27 67 23 8 27 17 19 11 12 11 5 11 17 39 41 42 55 45 86 59 52 32 5 8 46 29 29 39 32 27 12 11 8 2 10 5 16 15 23 10 23 28 34
47 23 27 79 20 18 10 8 3 6 10 13 4 10 25 24 22 16 40 47 81 44 49 38 8 8 8 7 4 29 20 30 13 7 17 16 21 10 7 2 10 22 19 27 29
22 11 12 50 35 10 7 8 8 4 6 11 13 3 6 34 21 38 33 30 62 51 69 48 11 16 22 26 17 21 32 27 30 18 23 20 30 8 18 17 23 22 25 29 35
21 8 16 13 19 12 18 10 14 8 4 24 6 24 17 24 44 16 27 23 33 63 41 30 24 24 9 12 14 19 36 41 40 51 27 43 37 43 29 29 10 10 26 37 42
22 11 9 4 32 34 21 30 22 11 18 14 13 28 35 23 27 21 19 24 24 37 43 18 17 10 4 8 10 7 18 22 39 36 34 33 28 33 12 10 18 18 22 28 30
30 27 31 11 18 21 16 11 37 18 12 12 21 10 18 17 50 32 48 42 32 40 36 22 11 17 21 18 12 10 22 16 10 11 26 24 39 7 4 7 8 14 21 26 31
Wind_Direction_850mb
252 247 248 247 248 247 249 253 254 256 255 258 254 251 248 252 257 258 254 255 250 252 247 264 277 313 315 278 278 281 51 247 260 20 339 118 43 113 107 114 91 131 168 181 170
246 249 248 248 246 246 245 247 247 250 255 249 254 253 253 251 257 255 254 247 241 239 244 236 224 318 223 248 223 180 149 228 235 353 94 20 303 156 113 153 173 139 203 177 182
252 249 249 248 247 246 244 243 246 245 246 240 243 250 249 250 269 266 260 251 244 231 223 215 206 284 268 259 223 196 215 265 287 357 10 48 3 337 134 135 229 215 217 201 196
253 251 251 247 247 245 244 241 239 239 239 236 231 239 238 223 234 308 252 236 231 228 216 213 206 217 233 251 256 247 270 265 286 312 321 341 329 332 272 260 308 286 237 212 211
253 254 250 249 245 244 244 241 236 235 234 231 224 229 220 215 224 150 197 212 206 212 208 203 198 207 205 232 261 228 243 254 275 291 299 303 285 279 297 287 307 280 232 221 233
253 249 251 247 244 243 240 243 235 232 231 226 221 217 220 236 234 212 211 215 211 207 208 195 202 202 265 241 239 267 274 255 244 267 292 277 266 268 255 279 279 255 255 247 248
250 251 251 248 243 243 238 236 238 232 229 225 219 217 226 231 176 212 215 249 235 217 208 197 177 190 207 280 278 273 291 303 251 280 284 300 275 229 262 263 267 270 275 248 250
251 251 248 248 245 241 238 235 232 234 230 225 219 218 238 258 215 204 208 228 243 214 214 195 197 238 250 248 321 6 293 248 266 258 267 263 257 236 240 265 270 266 265 260 246
248 248 248 247 245 241 237 235 231 232 229 226 216 211 242 241 225 211 185 210 218 188 198 186 205 225 230 147 341 265 226 230 267 235 256 198 282 247 247 253 266 275 267 270 258
247 247 246 244 244 240 238 233 233 235 231 233 226 188 232 219 220 215 198 180 195 173 182 204 200 175 190 172 212 204 216 234 214 228 225 240 256 251 234 238 267 276 279 279 274
247 246 246 243 242 236 233 224 217 228 218 201 215 195 76 214 200 210 192 184 190 186 183 186 178 206 206 198 203 186 228 227 220 231 247 237 254 249 249 238 239 259 269 276 279
242 242 240 243 242 238 226 214 209 202 215 227 231 212 213 201 180 198 184 194 189 196 160 173 216 212 146 187 197 215 236 251 270 269 212 253 266 245 244 240 242 243 253 267 275
240 237 237 236 237 234 225 224 216 212 255 220 227 223 219 198 200 190 185 192 189 187 199 194 226 184 184 193 200 219 218 231 224 323 275 266 274 261 262 260 263 267 273 268 270
238 231 232 231 229 227 226 226 221 214 240 214 191 219 218 224 228 197 192 184 184 206 193 219 229 184 196 206 197 213 210 215 193 126 242 71 275 247 252 272 270 270 263 263 265
239 228 227 223 221 216 216 217 205 206 233 177 186 205 205 194 141 200 193 196 206 175 179 210 169 193 198 210 191 229 193 200 188 202 84 251 260 279 198 253 257 263 265 261 266
229 223 225 221 220 222 218 213 209 218 216 174 150 179 176 188 193 187 184 192 213 192 210 216 196 184 208 213 195 143 106 194 226 173 237 238 215 264 248 256 261 264 262 262 265
226 222 219 218 216 217 212 208 216 221 140 179 168 175 185 188 182 193 184 188 189 200 198 216 229 210 192 175 191 168 139 217 226 218 242 207 181 242 260 253 247 256 259 265 268
214 218 220 220 222 207 204 221 219 206 175 168 166 181 193 181 196 181 190 190 207 194 167 190 207 223 199 202 174 192 190 195 204 185 230 174 207 244 232 257 252 255 265 270 274
216 217 215 217 218 213 210 226 233 184 176 155 167 184 189 185 175 186 192 192 193 195 194 192 225 199 197 161 179 194 202 201 89 29 63 220 287 305 252 261 250 241 275 97 58
205 208 217 216 212 205 210 224 220 204 162 173 181 187 195 190 174 186 187 194 194 195 196 193 219 213 197 169 222 197 150 186 199 208 235 232 234 242 329 306 319 126 115 73 47
207 201 217 219 205 216 215 209 233 247 158 165 178 194 197 189 200 188 177 178 193 194 198 187 139 203 153 200 197 152 198 170 159 162 194 267 250 220 226 217 120 125 99 50 27
196 186 206 195 190 224 221 154 168 170 111 80 246 184 190 183 193 193 207 202 196 188 194 204 159 168 197 189 194 208 204 189 186 185 199 131 268 275 147 144 102 70 27 37 16
166 174 202 186 208 215 152 122 130 153 132 140 164 215 217 189 189 162 183 204 189 184 184 184 190 142 57 21 328 200 200 199 194 111 197 192 237 277 213 174 42 12 24 16 16
147 160 188 190 199 149 106 146 98 76 144 133 151 166 267 208 208 193 196 167 182 185 194 176 158 195 191 209 147 195 206 199 200 220 212 215 245 266 294 290 328 348 17 29 15
152 174 175 189 174 174 175 166 154 137 194 141 143 202 243 206 190 190 192 175 171 192 183 189 192 193 164 102 144 197 203 210 210 222 212 238 242 261 253 277 301 38 35 24 22
143 148 127 200 184 173 180 199 172 144 170 171 165 193 215 236 215 173 142 158 173 181 190 176 195 131 215 145 136 184 215 214 224 226 224 235 247 243 61 334 13 48 41 39 28
170 181 164 157 168 173 201 179 202 143 237 162 179 188 235 223 242 207 164 173 165 169 188 171 130 174 207 131 93 308 208 184 191 202 211 223 237 285 123 192 92 89 50 26 6